Zurück zum Katalog

CZ-6A DEB

AktivSSO
NORAD 54905·DEBRIS·🇨🇳 China

Gestartet Nov 11, 2022 von Taiyuan Satellite Launch Center

Loading…

Nächste Überflüge (nächste 24 Stunden)

TLE

AktuellSource: Space-Track

Epoche: Sep 14, 2026, 03:31 UTC

1 54905U 22151QS  26257.14674115  .00001294  00000-0  35066-3 0  9994
2 54905  98.7043 324.8481 0080448  17.0292 343.3571 14.47575054199356

Verfolge CZ-6A DEB in Echtzeit mit AllMySat

Download on the App Store